Location: Sunny Point
(33.0946°N, 85.0574°W)
Time: 07:59:35
(UTC+00:00)

BlueWalker 3 - Visible Passes

Search period start: 04 December 2022 00:00
Search period end: 14 December 2022 00:00
Orbit: 501 x 519 km, 53.2° (Epoch: 03 December)

Date Brightness Start Highest point End Pass type
(mag) Time Alt. Az. Time Alt. Az. Time Alt. Az.
08 Dec 4.5 00:08:24 10° N 00:08:30 10° N 00:08:30 10° N visible
08 Dec 4.0 23:49:52 10° N 23:51:16 14° NNE 23:51:16 14° NNE visible
09 Dec 3.6 23:31:21 10° N 23:33:51 16° NNE 23:34:14 16° NE visible
10 Dec 5.0 01:08:59 10° NW 01:09:06 11° NW 01:09:06 11° NW visible
10 Dec 3.6 23:12:50 10° N 23:15:28 17° NNE 23:17:27 12° ENE visible
11 Dec 4.0 00:50:35 10° NW 00:52:21 25° WNW 00:52:21 25° WNW visible
12 Dec 2.6 00:32:10 10° NW 00:35:57 51° SW 00:36:00 51° SW visible
13 Dec 2.9 00:13:46 10° NW 00:17:30 47° SW 00:20:16 16° SSE visible
